Location: Newark
(11.6000°N, 43.1667°E)
Time: 06:59:33
(UTC+00:00)

LightSail 2 - Pass Details

Date: 18 September 2019
Orbit: 707 x 722 km, 24.0° (Epoch: 18 October)

Event Time Altitude Azimuth Distance (km) Brightness Sun altitude
Exits shadow 00:47:37 39° 91° (E) 1,047 6.3 -32.2°
Drops below altitude 10° 00:50:55 10° 75° (ENE) 2,160 8.5 -31.5°
Sets 00:53:22 0° 72° (ENE) 3,079 9.6 -30.9°
